GW6280 Weather Reports


time (UTC)temp
C
wind
direction
speed
KPH
gust
KPH
rain 1hr
cm
rain 24hr
cm
rain mn
cm
humidity
%
barometer
mb
20260503211017 26 83 8.0 14.5 0.00 0.00 0.00 37 1014.3
20260503210021 27 81 6.4 14.5 0.00 0.00 0.00 36 1014.4
20260503205024 27 300 4.8 8.0 0.00 0.00 0.00 39 1014.5
20260503204022 26 16 6.4 11.3 0.00 0.00 0.00 42 1014.6
20260503203019 25 39 9.7 12.9 0.00 0.00 0.00 43 1014.6
20260503202016 25 40 8.0 12.9 0.00 0.00 0.00 42 1014.8
20260503201021 24 40 8.0 19.3 0.00 0.00 0.00 43 1015.1
20260503200024 25 36 8.0 11.3 0.00 0.00 0.00 40 1015.1
20260503195028 25 296 6.4 14.5 0.00 0.00 0.00 42 1015.2
20260503194051 25 54 8.0 12.9 0.00 0.00 0.00 44 1015.3
20260503193017 25 38 6.4 9.7 0.00 0.00 0.00 42 1015.5
20260503192039 25 72 6.4 11.3 0.00 0.00 0.00 43 1015.5
20260503191023 25 42 8.0 14.5 0.00 0.00 0.00 43 1015.6
20260503190047 25 73 8.0 12.9 0.00 0.00 0.00 43 1015.6
20260503185030 24 14 9.7 14.5 0.00 0.00 0.00 42 1015.8
20260503184016 25 97 6.4 12.9 0.00 0.00 0.00 45 1015.9
20260503183019 25 66 8.0 12.9 0.00 0.00 0.00 44 1015.9
20260503182022 24 43 6.4 9.7 0.00 0.00 0.00 45 1016.0
20260503181027 23 6 8.0 19.3 0.00 0.00 0.00 46 1015.9
20260503180030 23 352 8.0 12.9 0.00 0.00 0.00 48 1016.1
20260503175033 23 41 8.0 14.5 0.00 0.00 0.00 48 1016.1
20260503174018 23 312 8.0 14.5 0.00 0.00 0.00 47 1016.2
20260503173102 22 247 6.4 11.3 0.00 0.00 0.00 49 1016.3
20260503172025 23 21 8.0 11.3 0.00 0.00 0.00 49 1016.4
20260503171029 23 1 6.4 11.3 0.00 0.00 0.00 49 1016.3
20260503131036 7 0.0 0.0 0.00 0.00 0.00 98 1016.1
20260503081030 9 0.0 0.0 0.00 0.00 0.00 94 1016.6
20260503072029 10 0.0 0.0 0.00 0.00 0.00 92 1016.4
20260503071032 10 0.0 0.0 0.00 0.00 0.00 91 1016.4
20260503055023 12 0.0 0.0 0.00 0.00 0.00 86 1016.3
20260503054027 12 0.0 0.0 0.00 0.00 0.00 86 1016.3
20260503053030 12 0.0 0.0 0.00 0.00 0.00 84 1016.3
20260503052015 12 0.0 0.0 0.00 0.00 0.00 84 1016.3
20260503051018 13 0.0 0.0 0.00 0.00 0.00 80 1016.1
20260503050042 13 0.0 0.0 0.00 0.00 0.00 81 1016.1
20260503045020 13 0.0 0.0 0.00 0.00 0.00 78 1015.9
20260503044017 13 0.0 0.0 0.00 0.00 0.00 76 1015.8
20260503043032 14 0.0 0.0 0.00 0.00 0.00 75 1015.8
20260503042018 15 0.0 0.0 0.00 0.00 0.00 72 1015.6
20260503041022 15 0.0 0.0 0.00 0.00 0.00 71 1015.5
20260503040025 15 0.0 0.0 0.00 0.00 0.00 69 1015.4
20260503035029 16 0.0 0.0 0.00 0.00 0.00 68 1015.3
20260503034032 16 263 1.6 3.2 0.00 0.00 0.00 67 1015.2
20260503033018 16 0.0 0.0 0.00 0.00 0.00 64 1015.1
20260503032021 17 262 3.2 4.8 0.00 0.00 0.00 63 1015.1
20260503031025 17 261 3.2 4.8 0.00 0.00 0.00 61 1015.0
20260503030028 18 260 3.2 8.0 0.00 0.00 0.00 59 1015.0
20260503025031 18 232 1.6 4.8 0.00 0.00 0.00 57 1015.0
20260503024017 19 258 3.2 6.4 0.00 0.00 0.00 55 1015.0
20260503023020 19 242 3.2 4.8 0.00 0.00 0.00 53 1015.0
20260503022024 20 263 3.2 6.4 0.00 0.00 0.00 52 1015.0
20260503021027 20 274 4.8 6.4 0.00 0.00 0.00 51 1015.0
20260503020051 20 265 1.6 4.8 0.00 0.00 0.00 51 1015.1
20260503015016 20 271 4.8 8.0 0.00 0.00 0.00 50 1015.1
20260503014020 20 46 4.8 11.3 0.00 0.00 0.00 49 1015.1
20260503013023 20 253 4.8 9.7 0.00 0.00 0.00 48 1015.1
20260503012106 20 295 4.8 9.7 0.00 0.00 0.00 47 1015.3
20260503011023 21 284 4.8 9.7 0.00 0.00 0.00 49 1015.1
20260503010021 21 354 4.8 8.0 0.00 0.00 0.00 48 1015.3
20260503005018 21 292 8.0 11.3 0.00 0.00 0.00 47 1015.3
20260503004016 21 290 4.8 8.0 0.00 0.00 0.00 47 1015.3
20260503003025 21 5 1.6 6.4 0.00 0.00 0.00 47 1015.4
20260503002048 21 348 6.4 11.3 0.00 0.00 0.00 46 1015.4
20260503001032 22 345 4.8 9.7 0.00 0.00 0.00 46 1015.5
20260503000017 22 338 6.4 16.1 0.00 0.00 0.00 46 1015.6
20260502235021 23 13 6.4 9.7 0.00 0.00 0.00 44 1015.6
20260502234024 23 304 6.4 11.3 0.00 0.00 0.00 45 1015.7
20260502233048 23 21 6.4 11.3 0.00 0.00 0.00 43 1015.8
20260502232031 23 315 6.4 11.3 0.00 0.00 0.00 44 1016.0
20260502231016 23 36 8.0 16.1 0.00 0.00 0.00 46 1016.3
20260502230100 23 289 8.0 16.1 0.00 0.00 0.00 46 1016.6
20260502225104 23 13 9.7 17.7 0.00 0.00 0.00 48 1016.6
20260502224027 23 351 8.0 16.1 0.00 0.00 0.00 48 1016.7
20260502223030 23 322 9.7 14.5 0.00 0.00 0.00 47 1016.9
20260502222016 23 16 8.0 19.3 0.00 0.00 0.00 48 1017.0
20260502221019 23 12 6.4 9.7 0.00 0.00 0.00 47 1017.1
20260502215026 23 77 9.7 14.5 0.00 0.00 0.00 47 1017.2
20260502214030 23 35 8.0 17.7 0.00 0.00 0.00 46 1017.3
20260502213047 23 34 9.7 12.9 0.00 0.00 0.00 45 1017.5
20260502212025 23 261 8.0 14.5 0.00 0.00 0.00 44 1017.6